Погода в Прииртышьем

Россия / Омская область     54°31′52″N   74°05′52″E
темп.,
°C
ветер,
м/с
пор.,
м/с
влажн.,
%
обл.,
%
осадки,
мм/ч
давл.,
гПа
погр.,
м
22 мая, вс
вс2200:00+24ююв819275 0.0 997619
03:00+22ююв918288 0.0 994512
06:00+20ююв6143634 0.0 994423
09:00+21з665667 0.0 996890
12:00+21з8751100 0.3 9981571
15:00+12з81175100 0.3 1002841
18:00+13юз5959100 2.2 10041215
21:00+11зюз8126544 0.6 1006850
23 мая, пн
пн2300:00+10зюз712615 3.2 1009603
03:00+8юз612725 0.0 1012391
06:00+8юз612665 0.0 1014489
09:00+13юз710505 0.0 10161232
12:00+17юз7103379 0.0 10162258
15:00+20ююз9112889 0.0 10152629
18:00+20ююз81330100 0.0 10151713
21:00+17ююз6124299 0.0 1015694
24 мая, вт
вт2400:00+15ююз5125673 0.0 1016366
03:00+14ю4106415 0.0 1016202
06:00+14ююз366581 0.0 1017139
09:00+20ююз574421 0.0 1017643
12:00+24ююз453283 0.0 10171661
15:00+26ююз452731 0.0 10162677
18:00+26зюз45266 0.0 10162433
21:00+21сз11375 0.0 101611
25 мая, ср
ср2500:00+19вюв22414 0.0 101711
03:00+17вюв33462 0.0 101719
06:00+17юв22493 0.0 101822
09:00+23юв223363 0.0 1018370
12:00+27вюв2225100 0.0 10182082
15:00+28в3324100 0.0 10162556
18:00+28в3425100 0.0 10162333
21:00+23вюв41043100 0.0 1017250
26 мая, чт
чт2600:00+20вюв4104562 0.0 1016168
03:00+18вюв495483 0.0 1016164
06:00+18вюв41058100 0.0 1015213
09:00+24юв694391 0.0 1015596
12:00+28юв810290 0.0 10132152
15:00+30юв89240 0.0 10112141
18:00+30юв79240 0.0 10101989
21:00+25вюв614332 0.0 1009304